VE3ZEB-1 Weather Reports


Display with metric or nautical units.
time (UTC)temp
F
wind
direction
speed
MPH
gust
MPH
rain 1hr
in
rain 24hr
in
rain mn
in
humidity
%
barometer
mb
20260505011023 63 191 7.0 11.0 0.00 0.00 0.00 66 679.8
20260505010023 64 195 6.0 9.0 0.00 0.00 0.00 64 679.9
20260505005023 65 206 6.0 10.0 0.00 0.00 0.00 61 679.9
20260505004043 66 215 5.0 9.0 0.00 0.00 0.00 61 679.9
20260505003024 66 205 6.0 8.0 0.00 0.00 0.00 60 679.9
20260505002024 67 203 7.0 10.0 0.00 0.00 0.00 59 679.9
20260505001024 67 206 7.0 9.0 0.00 0.00 0.00 57 679.9
20260505000024 68 221 5.0 9.0 0.00 0.00 0.00 56 679.9
20260504235044 68 220 5.0 8.0 0.00 0.00 0.00 55 679.9
20260504234024 69 221 6.0 9.0 0.00 0.00 0.00 53 680.0
20260504233024 69 224 6.0 9.0 0.00 0.00 0.00 52 680.0
20260504232024 70 229 7.0 12.0 0.00 0.00 0.00 51 680.0
20260504231040 70 226 6.0 10.0 0.00 0.00 0.00 50 680.0
20260504230039 70 235 5.0 9.0 0.00 0.00 0.00 49 680.0
20260504225025 71 221 6.0 9.0 0.00 0.00 0.00 48 680.0
20260504224025 71 237 6.0 11.0 0.00 0.00 0.00 48 680.0
20260504223025 71 223 7.0 10.0 0.00 0.00 0.00 47 680.0
20260504222106 71 236 9.0 13.0 0.00 0.00 0.00 45 680.0
20260504221025 71 233 7.0 12.0 0.00 0.00 0.00 45 680.0
20260504220026 71 229 8.0 12.0 0.00 0.00 0.00 44 680.0
20260504215106 71 229 7.0 12.0 0.00 0.00 0.00 43 680.0
20260504214025 72 226 10.0 16.0 0.00 0.00 0.00 42 680.0
20260504213026 72 237 7.0 9.0 0.00 0.00 0.00 42 680.0
20260504212026 72 227 10.0 18.0 0.00 0.00 0.00 42 680.0
20260504211047 73 229 7.0 14.0 0.00 0.00 0.00 43 680.0
20260504210027 74 222 7.0 13.0 0.00 0.00 0.00 43 680.1
20260504205047 74 238 7.0 14.0 0.00 0.00 0.00 42 680.1
20260504204027 74 230 8.0 13.0 0.00 0.00 0.00 42 680.1
20260504203027 74 238 6.0 11.0 0.00 0.00 0.00 45 680.1
20260504202027 73 233 6.0 12.0 0.00 0.00 0.00 45 680.0
20260504201047 73 227 9.0 14.0 0.00 0.00 0.00 46 680.0
20260504200027 73 222 9.0 17.0 0.00 0.00 0.00 46 680.1
20260504195027 73 209 8.0 13.0 0.00 0.00 0.00 47 680.0
20260504194027 73 214 8.0 11.0 0.00 0.00 0.00 47 680.0
20260504193048 73 223 8.0 11.0 0.00 0.00 0.00 46 680.0
20260504192028 73 221 8.0 11.0 0.00 0.00 0.00 46 680.0
20260504191028 73 220 7.0 11.0 0.00 0.00 0.00 46 680.0
20260504190028 73 203 8.0 12.0 0.00 0.00 0.00 47 680.0
20260504185028 73 219 5.0 7.0 0.00 0.00 0.00 47 680.0
20260504184028 73 230 7.0 10.0 0.00 0.00 0.00 47 680.0
20260504183017 73 221 5.0 10.0 0.00 0.00 0.00 47 680.0
20260504182017 73 212 8.0 10.0 0.00 0.00 0.00 47 680.1
20260504181018 73 212 9.0 16.0 0.00 0.00 0.00 47 680.1
20260504180018 74 229 7.0 10.0 0.00 0.00 0.00 46 680.1
20260504175018 75 216 8.0 14.0 0.00 0.00 0.00 44 680.1
20260504174119 75 225 7.0 10.0 0.00 0.00 0.00 43 680.1
20260504173018 75 218 7.0 11.0 0.00 0.00 0.00 42 680.1
20260504172038 76 231 9.0 13.0 0.00 0.00 0.00 42 680.1
20260504171019 75 241 5.0 9.0 0.00 0.00 0.00 42 680.1
20260504151040 70 222 7.0 10.0 0.00 0.00 0.00 54 679.9
20260504141022 62 230 5.0 8.0 0.00 0.00 0.00 64 679.7
20260504081021 48 235 4.0 7.0 0.00 0.00 0.00 72 679.4
20260504050023 51 238 3.0 6.0 0.00 0.00 0.00 64 679.5
20260504045023 51 243 3.0 7.0 0.00 0.00 0.00 65 679.5
20260504044024 51 232 4.0 7.0 0.00 0.00 0.00 65 679.5
20260504043024 51 233 4.0 7.0 0.00 0.00 0.00 65 679.5
20260504042024 51 235 4.0 7.0 0.00 0.00 0.00 65 679.5
20260504041024 51 239 4.0 7.0 0.00 0.00 0.00 65 679.5
20260504040024 51 233 4.0 7.0 0.00 0.00 0.00 63 679.5
20260504035024 52 242 3.0 6.0 0.00 0.00 0.00 63 679.5
20260504034025 52 237 3.0 7.0 0.00 0.00 0.00 61 679.5
20260504033025 53 235 3.0 5.0 0.00 0.00 0.00 60 679.5
20260504032025 53 246 3.0 6.0 0.00 0.00 0.00 60 679.6
20260504031045 53 243 4.0 9.0 0.00 0.00 0.00 60 679.6
20260504030025 54 250 3.0 6.0 0.00 0.00 0.00 61 679.6
20260504025025 54 256 3.0 6.0 0.00 0.00 0.00 60 679.6
20260504024046 54 259 4.0 6.0 0.00 0.00 0.00 59 679.6
20260504023026 54 242 4.0 10.0 0.00 0.00 0.00 57 679.6
20260504022026 54 234 4.0 7.0 0.00 0.00 0.00 56 679.6
20260504021046 54 226 5.0 7.0 0.00 0.00 0.00 55 679.6
20260504020026 55 227 3.0 9.0 0.00 0.00 0.00 54 679.6
20260504015046 55 237 4.0 8.0 0.00 0.00 0.00 53 679.6
20260504014026 55 240 4.0 7.0 0.00 0.00 0.00 53 679.6
20260504013027 55 233 4.0 7.0 0.00 0.00 0.00 52 679.6
20260504012027 55 239 5.0 8.0 0.00 0.00 0.00 52 679.6